Location: Siloam Springs
(36.1881°N, 94.5403°W)
Time: 10:48:09
(UTC-05:00)

RS-15 - Pass Details

Date: 02 June 2024
Orbit: 1896 x 2148 km, 64.8° (Epoch: 19 June)

Event Time Altitude Azimuth Distance (km) Brightness Sun altitude
Rises 00:45:54 0° 323° (NW) 5,330 11.2 -31.1°
Reaches altitude 10° 00:49:25 10° 317° (NW) 4,311 10.4 -31.2°
Maximum altitude 00:59:16 41° 252° (WSW) 2,549 8.4 -31.4°
Enters shadow 01:01:20 38° 229° (SW) 2,652 8.4 -31.4°
